Dauntless Aviation
Airports North America Canada
CYLW
YLW

Kelowna International Airport

Kelowna, BC, CANADA

Airport Info
Suggest Updated Information for this Airport

Location

Latitude / Longitude: 49°53'0"N / 119°29'35"W
  49°53.016'N / 119°29.598'W
  49.8836 / -119.4933

Nearby radio navigation aids

EX RUTLAND NDB. 335.5° 1.0nm from EX to field.
LW KELOWNA NDB. 147.1° 6.5nm from LW to field.

Runway Information

Runway 16 /34

Dimensions: 7300 x 200 ft.
Surface: ASP
 
Runway 16
Runway 34
Latitude: 49.966 49.946278
Longitude: -119.378961 -119.376461
Elevation: 1409 ft. 1409 ft.
Runway true heading: 166.6 346.6
 

Instrument Procedures

  Aerodrome Chart
  Parking Areas
  CAC: Aerodrome Chart
  CAC: Parking Areas - Apron I
  CAC: Parking Areas - Apron III

IAPs (Instrument Approach Procedures)

  CFS: KELOWNA VFR Terminal Procedures Chart
  CFS: KELOWNA VFR Terminal Procedures Chart - Night Circuit Procedure
  CFS: Aerodrome Information
  CFS: Aerodrome Information (Part 2)
  DATBO ONE ARR (DATBO.DATBO 1)
  LENUR ONE ARR (LENUR.LENUR 1)
  RNAV (GNSS) A
  NDB B (GNSS)
  ILS/DME 1 Rwy 16
  Night Circuit Procedures
  KELOWNA FIVE DEP (YLW 5.)

Departure Procedures

  Departure Procedure
Satellite photo at:
Airport distance calculator
From:
Weather Reports

METAR

CYLW

CYLW 240200Z AUTO 24018G25KT 9SM CLR 28/M01 A2956 RMK SLP003 DENSITY ALT 3500FT
CWUS
20.0nm S
CWUS 240200Z AUTO 26016G24KT 26/M03 RMK AO1 PK WND 24026/0149 SLP024 T02571033 55015
CWJV
23.3nm N
CWJV 240200Z AUTO 30004KT 24/03 RMK AO1 SLP002 T02400033 55024
CYYF
25.3nm S
CYYF 240200Z 26014G30KT 15SM FEW100 28/M00 A2959 RMK AC1 SLP017 DENSITY ALT 3200FT

TAF

CYLW
TAF CYLW 240038Z 2401/2413 21010G20KT P6SM SKC BECMG 2401/2403 23015G25KT FM240800 21015G25KT P6SM SCT030 TEMPO 2408/2413 P6SM -SHRA BKN030 RMK FCST BASED ON AUTO OBS. NXT FCST BY 240700Z
CYYF
25.3nm S
TAF CYYF 240038Z 2401/2413 18012G22KT P6SM FEW090 BECMG 2403/2405 28015G25KT FM240900 22012G22KT P6SM BKN050 TEMPO 2409/2413 P6SM -SHRA RMK NXT FCST BY 240700Z
Safelog

 

Dauntless Aviation

© 2007-2017 Dauntless Aviation, all rights reserved
Information provided via PilotNav comes from a variety of official and unofficial data sources. As errors are possible, do not use PilotNav for primary flight planning purposes. Verify any information that you receive via PilotNav with current and canonical charts and other official documents. The material in this database is subject to database copyrights held by Dauntless Aviation and may not be copied without the express permission of Dauntless Aviation - licenses for use of part of all of this data are available for purchase; enquire via the Dauntless Aviation helpdesk. A number of mechanisms and markers exist in the database to protect against and identify infringement / copyright. Automated queries against this website are stictly prohibited, and all activity is logged and analyzed.